Вернуться в каталог

STARLINK-31825

АктивенСвязьVLEO
NORAD 60056·PAYLOAD·🇺🇸 United States

Запущен Jun 8, 2024 с Vandenberg Space Force Base

Loading…

Ближайшие Пролёты (ближайшие 24 часа)

TLE

СвежийSource: CelesTrak SupGP

Эпоха: Sep 15, 2026, 02:15 UTC

1 60056C 24112U   26258.09423611  .00006051  00000+0  17873-3 0  2584
2 60056  53.1575 276.9588 0001278  93.3442 254.5548 15.34395195    12

Отслеживайте STARLINK-31825 в реальном времени с AllMySat

Download on the App Store